Back to catalog

COSMOS 1579 COOLANT

AliveLEO
NORAD 26513·DEBRIS·🇷🇺 Russia

Launched Jun 29, 1984 from Baikonur Cosmodrome

Loading…

Next Passes (next 24 hours)

TLE

StaleSource: Space-Track

Epoch: Sep 2, 2026, 20:57 UTC

1 26513U 84069E   26245.87318350  .00000040  00000-0  10098-3 0  9993
2 26513  65.0548  54.7933 0054830 316.0999 114.0442 13.91569638669069

Track COSMOS 1579 COOLANT in real time with AllMySat

Download on the App Store